Time,TemperatureF,DewpointF,PressureIn,WindDirection,WindDirectionDegrees,WindSpeedMPH,WindSpeedGustMPH,Humidity,HourlyPrecipIn,Conditions,Clouds,dailyrainin,SolarRadiationWatts/m^2,SoftwareType,DateUTC
2013-06-19 13:25:00,67.9,64.2,29.64,ENE,60,2.0,2.0,88,0.07,,,0.03,1009,Wunderground v.1.15,2013-06-19 19:25:00,
2013-06-19 13:30:00,68.5,64.8,29.64,ENE,59,1.0,2.0,88,0.05,,,0.03,1020,Wunderground v.1.15,2013-06-19 19:30:00,
2013-06-19 13:35:00,69.4,65.0,29.63,ENE,59,1.0,1.0,86,0.00,,,0.03,1063,Wunderground v.1.15,2013-06-19 19:35:00,
2013-06-19 13:40:00,69.7,64.0,29.64,ENE,59,0.0,1.0,82,0.00,,,0.03,274,Wunderground v.1.15,2013-06-19 19:40:00,
2013-06-19 13:45:00,69.2,62.8,29.64,SE,142,1.0,1.0,80,0.00,,,0.03,348,Wunderground v.1.15,2013-06-19 19:45:00,
2013-06-19 13:50:00,68.8,63.4,29.65,SSE,157,1.0,1.0,83,0.00,,,0.03,265,Wunderground v.1.15,2013-06-19 19:50:00,
2013-06-19 13:55:00,68.6,62.9,29.64,SSE,157,0.0,0.0,82,0.00,,,0.03,192,Wunderground v.1.15,2013-06-19 19:55:00,
2013-06-19 14:00:00,68.4,63.0,29.64,SE,143,0.0,0.0,83,0.00,,,0.03,336,Wunderground v.1.15,2013-06-19 20:00:00,
2013-06-19 14:05:00,68.2,61.8,29.64,SE,143,1.0,1.0,80,0.00,,,0.03,529,Wunderground v.1.15,2013-06-19 20:05:00,
2013-06-19 14:15:00,68.9,62.5,29.64,SE,143,0.0,11.0,80,0.00,,,0.03,387,Wunderground v.1.15,2013-06-19 20:15:00,
2013-06-19 14:20:00,68.8,62.7,29.64,NNE,20,0.0,11.0,81,0.00,,,0.03,172,Wunderground v.1.15,2013-06-19 20:20:00,
2013-06-19 14:30:00,68.0,62.6,29.64,NNW,348,2.0,11.0,83,0.00,,,0.03,214,Wunderground v.1.15,2013-06-19 20:30:00,
2013-06-19 14:40:00,67.4,62.1,29.64,North,360,2.0,11.0,83,0.00,,,0.03,195,Wunderground v.1.15,2013-06-19 20:40:00,
2013-06-19 14:45:00,67.1,62.1,29.63,North,11,3.0,11.0,84,0.00,,,0.03,179,Wunderground v.1.15,2013-06-19 20:45:00,
2013-06-19 14:50:00,66.7,62.0,29.63,North,355,5.0,5.0,85,0.00,,,0.03,195,Wunderground v.1.15,2013-06-19 20:50:00,
2013-06-19 14:55:00,66.6,61.9,29.63,North,355,4.0,11.0,85,0.00,,,0.03,192,Wunderground v.1.15,2013-06-19 20:55:00,
2013-06-19 15:00:00,66.3,62.3,29.63,North,5,3.0,11.0,87,0.00,,,0.03,178,Wunderground v.1.15,2013-06-19 21:00:00,
2013-06-19 15:05:00,66.0,62.3,29.64,North,355,3.0,11.0,88,0.00,,,0.03,142,Wunderground v.1.15,2013-06-19 21:05:00,
2013-06-19 15:10:00,65.9,62.2,29.63,North,355,2.0,11.0,88,0.00,,,0.03,162,Wunderground v.1.15,2013-06-19 21:10:00,
2013-06-19 15:15:00,65.8,62.5,29.63,North,355,1.0,11.0,89,0.00,,,0.03,183,Wunderground v.1.15,2013-06-19 21:15:00,
2013-06-19 15:20:00,65.8,62.1,29.64,North,355,1.0,1.0,88,0.00,,,0.03,167,Wunderground v.1.15,2013-06-19 21:20:00,
2013-06-19 15:25:00,65.8,62.1,29.64,North,355,0.0,11.0,88,0.00,,,0.03,153,Wunderground v.1.15,2013-06-19 21:25:00,
2013-06-19 15:30:00,65.8,61.8,29.63,North,355,0.0,11.0,87,0.00,,,0.03,144,Wunderground v.1.15,2013-06-19 21:30:00,
2013-06-19 15:35:00,65.8,61.8,29.63,North,355,0.0,11.0,87,0.00,,,0.03,142,Wunderground v.1.15,2013-06-19 21:35:00,
2013-06-19 15:45:00,65.8,61.2,29.63,North,355,1.0,11.0,85,0.00,,,0.03,134,Wunderground v.1.15,2013-06-19 21:45:00,
2013-06-19 15:55:00,65.6,62.3,29.63,NNW,347,2.0,11.0,89,0.00,,,0.03,111,Wunderground v.1.15,2013-06-19 21:55:00,
2013-06-19 16:05:00,65.3,62.0,29.63,NNW,344,1.0,4.0,89,0.00,,,0.03,88,Wunderground v.1.15,2013-06-19 22:05:00,
2013-06-19 16:10:00,65.3,61.7,29.64,NNW,336,1.0,1.0,88,0.00,,,0.03,65,Wunderground v.1.15,2013-06-19 22:10:00,
2013-06-19 16:15:00,65.5,62.5,29.64,NNW,336,0.0,11.0,90,0.00,,,0.03,53,Wunderground v.1.15,2013-06-19 22:15:00,
2013-06-19 16:20:00,65.4,62.4,29.65,NNW,336,0.0,11.0,90,0.00,,,0.03,40,Wunderground v.1.15,2013-06-19 22:20:00,
2013-06-19 16:30:00,65.2,61.9,29.65,NNW,336,0.0,11.0,89,0.00,,,0.03,56,Wunderground v.1.15,2013-06-19 22:30:00,
2013-06-19 16:35:00,65.1,61.8,29.65,NNW,336,0.0,11.0,89,0.00,,,0.03,60,Wunderground v.1.15,2013-06-19 22:35:00,
2013-06-19 16:40:00,65.3,62.6,29.65,NNW,336,0.0,11.0,91,0.00,,,0.03,67,Wunderground v.1.15,2013-06-19 22:40:00,
2013-06-19 16:45:00,65.5,62.8,29.65,NNW,336,0.0,11.0,91,0.00,,,0.03,77,Wunderground v.1.15,2013-06-19 22:45:00,
2013-06-19 16:50:00,65.4,62.7,29.65,NNW,336,0.0,11.0,91,0.00,,,0.03,76,Wunderground v.1.15,2013-06-19 22:50:00,
2013-06-19 16:55:00,65.2,62.5,29.66,NNW,336,1.0,11.0,91,0.00,,,0.03,70,Wunderground v.1.15,2013-06-19 22:55:00,